Location: Gleizolles
(44.4833°N, 6.7667°E)
Time: 10:46:48
(UTC+00:00)

Envisat - Pass Details

Date: 07 December 2021
Orbit: 764 x 766 km, 98.2° (Epoch: 20 January)

Event Time Altitude Azimuth Distance (km) Brightness Sun altitude
Rises 03:40:47 0° 24° (NNE) 3,242 6.5 -33.9°
Reaches altitude 10° 03:43:27 10° 37° (NE) 2,311 5.8 -33.4°
Maximum altitude 03:47:44 27° 94° (E) 1,452 5.0 -32.6°
Drops below altitude 10° 03:51:58 10° 151° (SSE) 2,295 5.8 -31.9°
Sets 03:54:36 0° 164° (SSE) 3,216 6.4 -31.4°
